Location: Saluda
(35.2377°N, 82.3468°W)
Time: 23:14:53
(UTC+00:00)

Tiros 1 - Pass Details

Date: 12 October 2022
Orbit: 629 x 662 km, 48.4° (Epoch: 09 December)

Event Time Altitude Azimuth Distance (km) Brightness Sun altitude
Rises 23:57:01 0° 211° (SSW) 2,957 11.0 -12.6°
Reaches altitude 10° 23:59:27 10° 203° (SSW) 2,054 10.0 -13.1°
Maximum altitude 00:03:51 39° 135° (SE) 991 7.8 -14.0°
Enters shadow 00:06:17 23° 82° (E) 1,406 8.3 -14.5°
